[[{"header":{"parameterUnit":"m.s-1","parameterCategory":1,"la1":30.2991,"la2":30.254,"lo1":-89.0895,"lo2":-89.0444,"dy":0.0017,"dx":0.0017,"nx":28,"ny":28,"refTime":"2024-03-15T03:00:00:Z","depth":0,"parameterNumber":2,"parameterNumberName":"U-component_of_WINDS"},"data":[0,0,0,0,0,0,0,0,0,0,0,0,0,0,0,0,0,0,0,0,0,0,0,0,0,0,0,0,0,0,0,0,0,0,0,0,0,0,0,0,0,0,0,0,0,0,0,0,0,0,0,0,0,0,0,0,0,0,-3.6348,-3.6349,0,-3.6426,-3.6427,-3.6428,-3.6421,-3.642,-3.6418,-3.6417,-3.6499,-3.6502,-3.6505,0,0,0,0,0,0,0,0,0,0,0,0,0,-3.6193,-3.6196,-3.6348,-3.6349,-3.635,-3.6426,-3.6427,-3.6428,-3.6421,-3.6419,-3.6418,-3.6417,-3.6498,-3.6502,-3.6506,0,0,0,0,0,0,0,0,0,0,0,0,0,-3.6265,-3.6197,-3.6348,-3.6355,-3.6357,-3.6426,-3.6427,-3.6429,-3.6421,-3.6419,-3.6418,-3.6416,-3.6497,-3.6501,-3.6506,-3.6574,0,0,-3.6521,-3.6524,0,0,0,0,0,0,0,0,-3.6261,-3.6271,-3.6353,-3.6355,-3.6357,-3.6412,-3.6403,-3.6477,-3.6422,-3.6397,-3.6417,-3.6415,-3.6472,-3.6478,-3.6497,-3.6577,-3.6581,-3.6522,-3.6525,-3.6527,-3.6528,0,0,0,0,0,0,0,-3.6256,-3.6267,-3.6379,-3.6354,-3.6356,-3.6355,-3.6363,-3.6417,-3.6443,-3.6399,-3.6398,-3.6408,-3.6472,-3.6492,-3.6499,-3.6582,-3.6522,-3.6526,-3.6529,-3.6531,-3.6722,-3.6724,0,0,0,0,0,0,-3.6249,-3.6263,-3.6376,-3.6381,-3.6303,-3.636,-3.6369,-3.6396,-3.6443,-3.6448,-3.6409,-3.6407,-3.6485,-3.6493,-3.6502,-3.6583,-3.6527,-3.6532,-3.6535,-3.672,-3.6722,-3.6724,0,0,0,0,0,0,-3.6246,-3.6259,-3.6373,-3.6322,-3.6337,-3.6364,-3.6395,-3.6398,-3.6419,-3.6451,-3.6456,-3.6425,-3.6484,-3.6495,-3.6556,-3.6586,-3.6534,-3.6538,-3.6717,-3.672,-3.6723,-3.6747,0,0,0,0,0,0,-3.6241,-3.6258,-3.6283,-3.6323,-3.6339,-3.6425,-3.6397,-3.6401,-3.6427,-3.6425,-3.6467,-3.6472,-3.6483,-3.6548,-3.6561,-3.6592,-3.6542,-3.6715,-3.6719,-3.6722,-3.6743,-3.675,-3.6756,0,0,0,0,0,-3.6236,-3.6287,-3.6284,-3.6298,-3.6371,-3.6427,-3.6436,-3.6448,-3.643,-3.6455,-3.6476,-3.6471,-3.6581,-3.6555,-3.6568,-3.6602,-3.6713,-3.6718,-3.6722,-3.674,-3.6749,-3.6756,0,0,0,0,0,0,-3.625,-3.6292,-3.629,-3.6355,-3.6387,-3.6425,-3.6458,-3.6456,-3.6495,-3.6491,-3.6505,-3.6514,-3.6575,-3.6595,-3.6565,-3.6669,-3.6645,-3.6652,-3.6654,-3.6662,-3.6668,-3.6661,-3.6546,0,0,0,0,0,-3.6261,-3.6302,-3.6337,-3.6391,-3.6407,-3.643,-3.6455,-3.6461,-3.6495,-3.6509,-3.6534,-3.6568,-3.661,-3.6637,-3.6678,-3.6747,-3.6756,-3.6777,-3.6783,-3.6788,-3.6794,-3.6832,-3.6841,-3.674,-3.674,-3.674,0,0,-3.6283,-3.6311,-3.6336,-3.6394,-3.642,-3.6463,-3.6441,-3.6487,-3.6519,-3.6516,-3.6574,-3.6594,-3.6633,-3.6698,-3.6728,-3.6716,-3.6824,-3.6794,-3.6798,-3.6801,-3.6837,-3.6847,-3.6856,-3.6743,-3.6742,-3.6742,0,0,-3.6345,-3.6371,-3.6419,-3.6445,-3.6485,-3.65,-3.6511,-3.655,-3.6563,-3.6622,-3.6621,-3.6659,-3.6732,-3.676,-3.6783,-3.6858,-3.6854,-3.6871,-3.6904,-3.694,-3.6948,-3.6955,-3.6981,-3.699,-3.6877,-3.6877,-3.6878,0,-3.6368,-3.6432,-3.6444,-3.649,-3.6516,-3.6515,-3.6564,-3.6589,-3.664,-3.6658,-3.6645,-3.6736,-3.6762,-3.6833,-3.6852,-3.6871,-3.6885,-3.6865,-3.6946,-3.6953,-3.696,-3.6985,-3.6995,-3.6879,-3.6879,-3.6879,-3.6879,0,-3.6458,-3.6502,-3.6536,-3.6584,-3.6614,-3.6662,-3.6682,-3.6711,-3.6715,-3.6732,-3.6792,-3.6824,-3.6871,-3.6889,-3.6894,-3.6962,-3.6953,-3.6943,-3.6918,-3.6971,-3.6995,-3.7004,-3.6882,-3.6881,-3.688,-3.688,0,0,-3.6529,-3.6584,-3.6596,-3.6619,-3.6663,-3.6697,-3.6746,-3.6791,-3.6816,-3.6852,-3.6892,-3.6954,-3.6946,-3.6972,-3.6981,-3.7013,-3.7069,-3.6999,-3.7,-3.701,-3.7145,-3.7151,-3.7162,-3.7068,-3.707,-3.7072,-3.7141,0,-3.6594,-3.6678,-3.6691,-3.6765,-3.6806,-3.6807,-3.6849,-3.6881,-3.6898,-3.6936,-3.6956,-3.7,-3.6985,-3.7001,-3.7034,-3.7056,-3.7096,-3.7051,-3.7106,-3.7107,-3.7093,-3.7174,-3.718,-3.7244,-3.7151,-3.7152,-3.7154,0,-3.6681,-3.6719,-3.6796,-3.6835,-3.6853,-3.689,-3.6933,-3.697,-3.7007,-3.7018,-3.7048,-3.7053,-3.7104,-3.7078,-3.7148,-3.7117,-3.7141,-3.7155,-3.7158,-3.7162,-3.7132,-3.7179,-3.7265,-3.7274,-3.7168,-3.7167,-3.7166,0,-3.6723,-3.6794,-3.6849,-3.6869,-3.6916,-3.6942,-3.6963,-3.6998,-3.7025,-3.7064,-3.7081,-3.7126,-3.7149,-3.7184,-3.7201,-3.7181,-3.727,-3.7246,-3.728,-3.7279,-3.7296,-3.7295,-3.7386,-3.7315,-3.7315,-3.7314,-3.7314,0,-3.6794,-3.6841,-3.6869,-3.6903,-3.6956,-3.6972,-3.7024,-3.7045,-3.7076,-3.7115,-3.712,-3.7156,-3.7177,-3.7217,-3.7231,-3.7286,-3.7297,-3.7307,-3.731,-3.7306,-3.7304,-3.732,-3.7315,-3.7317,-3.7316,-3.7316,-3.7316,0,-3.6849,-3.687,-3.693,-3.697,-3.6982,-3.7019,-3.7054,-3.7087,-3.7105,-3.7154,-3.7166,-3.7195,-3.7242,-3.7263,-3.7321,-3.7331,-3.7394,-3.7394,-3.7381,-3.7381,-3.7413,-3.7409,-3.7517,-3.7531,-3.7452,-3.7452,-3.7453,0,-3.6892,-3.6928,-3.6972,-3.6998,-3.702,-3.7061,-3.7089,-3.7107,-3.7135,-3.7181,-3.7209,-3.7256,-3.7294,-3.7369,-3.7396,-3.744,-3.7441,-3.7476,-3.7448,-3.7442,-3.744,-3.7437,-3.744,-3.748,-3.7481,-3.7481,-3.7482,0,-3.6965,-3.6974,-3.7013,-3.7056,-3.7089,-3.7124,-3.7158,-3.7179,-3.7202,-3.7234,-3.7282,-3.7312,-3.7371,-3.7418,-3.7465,-3.7487,-3.7489,-3.7491,-3.7501,-3.7496,-3.7486,-3.749,-3.7393,-3.7488,-3.7487,-3.7487,-3.7486,-3.7486,-3.7015,-3.7047,-3.7083,-3.7126,-3.7154,-3.7186,-3.7219,-3.7242,-3.7282,-3.7331,-3.734,-3.739,-3.7428,-3.749,-3.7515,-3.7556,-3.7547,-3.7562,-3.7565,-3.7568,-3.7569,-3.7481,-3.7564,-3.7564,-3.7564,-3.7564,-3.7564,0,-3.7087,-3.711,-3.715,-3.7198,-3.7232,-3.7231,-3.7269,-3.7298,-3.7343,-3.7377,-3.7415,-3.747,-3.7516,-3.7547,-3.7593,-3.7619,-3.7621,-3.7631,-3.7628,-3.7633,-3.7575,-3.7561,-3.7629,-3.7629,-3.7629,-3.7629,-3.7629,-3.7629,-3.7128,-3.7182,-3.7195,-3.7264,-3.7287,-3.7336,-3.7358,-3.7388,-3.7416,-3.7477,-3.7514,-3.7534,-3.7568,-3.7617,-3.7659,-3.7667,-3.7683,-3.7693,-3.77,-3.7644,-3.7637,-3.7631,-3.7618,-3.7696,-3.7697,-3.7755,-3.7756,-3.7756]},{"header":{"parameterUnit":"m.s-1","parameterCategory":1,"la1":30.2991,"la2":30.254,"lo1":-89.0895,"lo2":-89.0444,"dy":0.0017,"dx":0.0017,"nx":28,"ny":28,"refTime":"2024-03-15T03:00:00:Z","depth":0,"parameterNumber":3,"parameterNumberName":"V-component_of_WINDS"},"data":[0,0,0,0,0,0,0,0,0,0,0,0,0,0,0,0,0,0,0,0,0,0,0,0,0,0,0,0,0,0,0,0,0,0,0,0,0,0,0,0,0,0,0,0,0,0,0,0,0,0,0,0,0,0,0,0,0,0,3.0729,3.0729,0,3.0762,3.0762,3.0763,3.0769,3.0768,3.0768,3.0768,3.0801,3.0802,3.0803,0,0,0,0,0,0,0,0,0,0,0,0,0,3.067,3.0671,3.0729,3.0729,3.0729,3.0762,3.0762,3.0763,3.0769,3.0768,3.0768,3.0768,3.08,3.0802,3.0803,0,0,0,0,0,0,0,0,0,0,0,0,0,3.0699,3.0672,3.0729,3.0736,3.0737,3.0762,3.0762,3.0763,3.0769,3.0768,3.0768,3.0768,3.08,3.0801,3.0803,3.0822,0,0,3.0808,3.0809,0,0,0,0,0,0,0,0,3.0697,3.0701,3.0735,3.0736,3.0737,3.0761,3.0754,3.0783,3.0769,3.0757,3.0768,3.0767,3.0788,3.079,3.0797,3.0823,3.0825,3.0808,3.0809,3.081,3.0811,0,0,0,0,0,0,0,3.0695,3.07,3.0742,3.0735,3.0737,3.0738,3.0742,3.0759,3.0774,3.0758,3.0758,3.0762,3.0788,3.0796,3.0798,3.0825,3.0808,3.081,3.0811,3.0812,3.0871,3.0872,0,0,0,0,0,0,3.0692,3.0698,3.0741,3.0743,3.0716,3.074,3.0744,3.0754,3.0774,3.0777,3.0763,3.0762,3.0793,3.0796,3.0799,3.0825,3.081,3.0812,3.0813,3.0871,3.0871,3.0872,0,0,0,0,0,0,3.0691,3.0696,3.0739,3.0721,3.0726,3.0741,3.0752,3.0754,3.0762,3.0778,3.078,3.0768,3.0793,3.0797,3.0817,3.0826,3.0813,3.0814,3.087,3.0871,3.0872,3.0874,0,0,0,0,0,0,3.0689,3.0695,3.0702,3.0721,3.0727,3.0756,3.0753,3.0755,3.0765,3.0765,3.0783,3.0786,3.0793,3.0814,3.0819,3.0828,3.0815,3.0869,3.087,3.0871,3.0873,3.0875,3.0876,0,0,0,0,0,3.0687,3.07,3.0702,3.0708,3.0736,3.0757,3.076,3.0769,3.0766,3.0773,3.0784,3.0785,3.0824,3.0816,3.0821,3.0831,3.0869,3.087,3.0871,3.0872,3.0874,3.0876,0,0,0,0,0,0,3.0681,3.0703,3.0705,3.0725,3.0739,3.0758,3.0767,3.077,3.0785,3.0784,3.0794,3.0798,3.0818,3.0826,3.0818,3.0852,3.0846,3.0849,3.0845,3.0847,3.0849,3.0847,3.0817,0,0,0,0,0,3.0683,3.0698,3.0715,3.0731,3.0739,3.0752,3.0761,3.0767,3.0781,3.0787,3.0799,3.0812,3.0828,3.0838,3.0853,3.0874,3.0879,3.0884,3.0885,3.0886,3.0888,3.0903,3.0905,3.0876,3.0876,3.0876,0,0,3.0685,3.0699,3.0707,3.0731,3.0742,3.0758,3.0756,3.0772,3.0785,3.0789,3.0809,3.0819,3.0835,3.0856,3.0866,3.0864,3.0898,3.0888,3.0889,3.089,3.0904,3.0907,3.0909,3.0877,3.0877,3.0877,0,0,3.0698,3.0709,3.0725,3.0737,3.0755,3.0764,3.0768,3.0787,3.0793,3.0814,3.0819,3.0833,3.0859,3.0871,3.0881,3.0902,3.0904,3.0906,3.0914,3.0928,3.093,3.0932,3.0941,3.0944,3.0908,3.0908,3.0908,0,3.0698,3.0722,3.0732,3.0749,3.076,3.0766,3.0783,3.0794,3.0816,3.0823,3.0821,3.0856,3.0867,3.0892,3.0898,3.0905,3.0911,3.0904,3.0929,3.0931,3.0933,3.0942,3.0945,3.0908,3.0908,3.0908,3.0908,0,3.0723,3.074,3.075,3.0773,3.0785,3.0801,3.0815,3.0826,3.0831,3.0841,3.0863,3.0877,3.0896,3.0903,3.0907,3.093,3.0928,3.0927,3.0922,3.0936,3.0945,3.0948,3.0909,3.0909,3.0908,3.0908,0,0,3.0731,3.0761,3.0765,3.0777,3.0798,3.0811,3.0829,3.0849,3.0859,3.0874,3.089,3.0914,3.0914,3.0925,3.0931,3.0943,3.0961,3.0941,3.0942,3.0946,3.0989,3.099,3.0994,3.0963,3.0964,3.0964,3.0988,0,3.0748,3.078,3.0791,3.0817,3.0834,3.0842,3.0857,3.0873,3.0883,3.0899,3.091,3.0927,3.0925,3.0932,3.0944,3.0956,3.097,3.0955,3.0979,3.0979,3.0975,3.0998,3.0999,3.1021,3.0991,3.0992,3.0992,0,3.077,3.0788,3.0817,3.0839,3.0846,3.086,3.0881,3.0895,3.0914,3.0921,3.0934,3.0941,3.096,3.0954,3.0982,3.0972,3.0982,3.099,3.0991,3.0994,3.0987,3.1003,3.1028,3.1031,3.0997,3.0997,3.0996,0,3.0775,3.0806,3.0828,3.0837,3.0863,3.0873,3.0884,3.0902,3.0915,3.0933,3.0941,3.0961,3.0972,3.0987,3.0999,3.0993,3.1027,3.1021,3.1034,3.1033,3.104,3.104,3.1068,3.1046,3.1046,3.1046,3.1045,0,3.0792,3.081,3.0831,3.0844,3.0865,3.0878,3.0898,3.091,3.0927,3.0943,3.0951,3.0966,3.098,3.0998,3.1007,3.103,3.1035,3.1041,3.1044,3.1041,3.1041,3.1049,3.1048,3.1046,3.1046,3.1046,3.1046,0,3.0801,3.0816,3.084,3.0864,3.0871,3.0885,3.0905,3.0919,3.0931,3.0952,3.0958,3.0975,3.0997,3.101,3.1037,3.1043,3.1069,3.1071,3.1063,3.1065,3.1077,3.1077,3.1113,3.1119,3.1091,3.1091,3.1091,0,3.0811,3.0825,3.0851,3.0864,3.0875,3.0894,3.0908,3.0922,3.0935,3.0959,3.0971,3.0993,3.1011,3.1045,3.1061,3.1082,3.1085,3.1096,3.1088,3.1086,3.1087,3.1086,3.1088,3.1097,3.1098,3.1098,3.1098,0,3.0828,3.0836,3.0855,3.0877,3.0893,3.0911,3.0929,3.0939,3.0956,3.0971,3.0994,3.1008,3.1037,3.106,3.1083,3.1095,3.11,3.1101,3.1105,3.1103,3.1099,3.1103,3.1068,3.11,3.1099,3.1099,3.1099,3.1099,3.0839,3.0853,3.0874,3.0896,3.0912,3.0929,3.0944,3.0959,3.0978,3.1003,3.1011,3.1035,3.1055,3.1087,3.11,3.112,3.1118,3.1124,3.1126,3.1127,3.1128,3.1095,3.1124,3.1124,3.1124,3.1124,3.1124,0,3.0857,3.0872,3.0892,3.0919,3.0936,3.0941,3.0962,3.0976,3.0998,3.1017,3.1036,3.1063,3.1086,3.1104,3.1128,3.1141,3.1144,3.1146,3.1146,3.1149,3.1127,3.1122,3.1144,3.1144,3.1144,3.1144,3.1144,3.1144,3.0869,3.0894,3.0904,3.0938,3.0952,3.0977,3.0989,3.1006,3.1022,3.1053,3.1072,3.1084,3.1104,3.1129,3.1151,3.1156,3.1165,3.1168,3.1173,3.1152,3.115,3.1148,3.1143,3.1169,3.1169,3.1193,3.1194,3.1194]}]]